FENGYUN 1C DEB, 30751

Orbit data source: Space-Track

FENGYUN 1C DEB, 30751 is space debris in SSO originally from a launch on Mon, 10 May 1999 UTC launched from the Taiyaun Space Center, China (TSC). Fengyun 1C debris stems from the Chinese weather satellite Fengyun-1C, which was intentionally destroyed by a Chinese anti-satellite missile in 2007. This event dramatically increased the amount of space debris, with thousands of trackable fragments posing hazards to satellites and human spaceflight. The Fengyun 1C debris cloud has become a focal point in discussions about space sustainability and the need for international regulations to prevent the creation of new debris.

Loading next visibility...
Identifier
30751, 1999-025ATM
Orbit
SSO
Country
Flag of CNCN / PRC
Related business
Manufacturer
Unknown
Mission
Spacecraft
Bus & Motor
Unknown
Mass
Unknown
Launch date (UTC)
1999-05-10 (27 years ago)
Launch vehicle
Unknown
Launch site
Taiyaun Space Center, China (TSC)
Object type
Payload
Rocket body
Debris
Shape & HBR
Unknown shape, 0.1 m
Radar Cross Section
Medium (>0.1 m² and <1 m²)

Expand to show TLE details & history
Last TLE update: 17 hours ago

TLE from 17 hours ago
0 FENGYUN 1C DEB
1 30751U 99025ATM 26169.18338255  .00001590  00000-0  81723-3 0  9999
2 30751  98.8408 232.0028 0048747 278.5800 154.8370 14.16124157989288
Epoch: 2026-06-18T04:24Z
TLE epoch observation values (Epoch: 2026-06-18T04:24:04.252Z)
Latitude
71.54629°
Longitude
-128.06853°
Altitude
882.67 km
Speed
7.401 km/s
True Right ascension
13h 37m 31s
True Declination
71° 26' 40"
Sunlit
Object was in daylight at epoch
Visualization orbit readout
Latitude
Unknown
Longitude
Unknown
Altitude
Unknown
Speed
Unknown
Apparent Right ascension
Unknown
Apparent Declination
Unknown
Sunlit
N/A
Visualization observer readout
Local Sidereal Time
08:35:23
Azimuth
Unknown
Elevation
Unknown
Doppler factor
Unknown
Orbital elements
Apogee altitude
870.826 km
Perigee altitude
800.495 km
Semi-major axis
7,213.797 km
Eccentricity
0.00487
Inclination
98.8408°
RAAN
232.0028°
Arg. of periapsis
278.58°
True anomaly
155.07321°
Mean anomaly
154.837°
Eccentric anomaly
154.95523°
Mean motion
3.5424 °/min
Orbital period
101.63 mins
BSTAR
0.00081723
Loading maneuver chart data...
Computing Atmospheric mass density...
Loading historical data...
Loading historical data...
Loading historical data...
Loading historical data...
Loading historical data...
Loading historical data...
Loading historical data...

Documentation

Showing up to 5 results
|